Time,TemperatureF,DewpointF,PressureIn,WindDirection,WindDirectionDegrees,WindSpeedMPH,WindSpeedGustMPH,Humidity,HourlyPrecipIn,Conditions,Clouds,dailyrainin,SoftwareType,DateUTC
2013-02-05 00:00:00,9.5,1.1,28.80,SE,135,2.3,2.3,68,0.00,RA,,0.00,WeatherDisplay:10.37,2013-02-05 06:00:00,
2013-02-05 00:05:00,9.7,1.2,28.80,South,180,5.8,5.8,68,0.00,RA,,0.00,WeatherDisplay:10.37,2013-02-05 06:05:00,
2013-02-05 00:10:00,9.7,1.2,28.79,SE,135,5.8,5.8,68,0.00,RA,,0.00,WeatherDisplay:10.37,2013-02-05 06:10:00,
2013-02-05 00:15:00,9.9,1.4,28.79,SE,135,4.6,4.6,68,0.00,CLR,,0.00,WeatherDisplay:10.37,2013-02-05 06:15:00,
2013-02-05 00:20:00,10.0,1.9,28.79,SE,135,4.6,4.6,69,0.00,CLR,,0.00,WeatherDisplay:10.37,2013-02-05 06:20:00,
2013-02-05 00:25:00,10.0,1.6,28.78,SE,135,4.6,4.6,68,0.00,CLR,,0.00,WeatherDisplay:10.37,2013-02-05 06:25:00,
2013-02-05 00:30:00,10.2,1.7,28.77,South,180,5.8,5.8,68,0.00,CLR,,0.00,WeatherDisplay:10.37,2013-02-05 06:30:00,
2013-02-05 00:35:00,10.2,2.1,28.77,SE,135,8.1,8.1,69,0.00,CLR,,0.00,WeatherDisplay:10.37,2013-02-05 06:35:00,
2013-02-05 00:40:00,10.2,2.7,28.76,SE,135,8.1,8.1,71,0.00,CLR,,0.00,WeatherDisplay:10.37,2013-02-05 06:40:00,
2013-02-05 00:45:00,10.2,3.3,28.76,SE,135,5.8,5.8,73,0.00,CLR,,0.00,WeatherDisplay:10.37,2013-02-05 06:45:00,
2013-02-05 00:50:00,10.2,3.3,28.76,SE,135,5.8,5.8,73,0.00,CLR,,0.00,WeatherDisplay:10.37,2013-02-05 06:50:00,
2013-02-05 00:55:00,10.2,4.2,28.75,SE,135,5.8,5.8,76,0.00,CLR,,0.00,WeatherDisplay:10.37,2013-02-05 06:55:00,
2013-02-05 01:00:00,10.0,4.3,28.74,SE,135,8.1,8.1,77,0.00,CLR,,0.00,WeatherDisplay:10.37,2013-02-05 07:00:00,
2013-02-05 01:05:00,10.0,4.3,28.74,SE,135,8.1,8.1,77,0.00,CLR,,0.00,WeatherDisplay:10.37,2013-02-05 07:05:00,
2013-02-05 01:10:00,9.9,4.6,28.74,East,90,10.4,10.4,79,0.00,CLR,,0.00,WeatherDisplay:10.37,2013-02-05 07:10:00,
2013-02-05 01:15:00,9.7,5.0,28.73,SE,135,8.1,8.1,81,0.00,CLR,,0.00,WeatherDisplay:10.37,2013-02-05 07:15:00,
2013-02-05 01:20:00,9.7,5.6,28.73,SE,135,10.4,10.4,83,0.00,CLR,,0.00,WeatherDisplay:10.37,2013-02-05 07:20:00,
2013-02-05 01:25:00,9.9,6.0,28.73,SE,135,9.2,9.2,84,0.00,CLR,,0.00,WeatherDisplay:10.37,2013-02-05 07:25:00,
2013-02-05 01:30:00,9.7,6.1,28.73,SE,135,10.4,10.4,85,0.00,CLR,,0.00,WeatherDisplay:10.37,2013-02-05 07:30:00,
2013-02-05 01:35:00,9.9,6.5,28.72,SE,135,8.1,8.1,86,0.00,CLR,,0.00,WeatherDisplay:10.37,2013-02-05 07:35:00,
2013-02-05 01:40:00,10.0,6.9,28.72,SE,135,8.1,8.1,87,0.00,CLR,,0.00,WeatherDisplay:10.37,2013-02-05 07:40:00,
2013-02-05 01:45:00,10.0,6.9,28.72,SE,135,10.4,10.4,87,0.00,CLR,,0.00,WeatherDisplay:10.37,2013-02-05 07:45:00,
2013-02-05 01:50:00,10.0,6.9,28.72,SE,135,10.4,10.4,87,0.00,CLR,,0.00,WeatherDisplay:10.37,2013-02-05 07:50:00,
2013-02-05 01:55:00,10.0,7.2,28.72,SE,135,5.8,5.8,88,0.00,CLR,,0.00,WeatherDisplay:10.37,2013-02-05 07:55:00,
2013-02-05 02:00:00,10.2,7.4,28.72,SE,135,8.1,8.1,88,0.00,CLR,,0.00,WeatherDisplay:10.37,2013-02-05 08:00:00,
2013-02-05 02:05:00,10.2,7.4,28.71,SE,135,8.1,8.1,88,0.00,CLR,,0.00,WeatherDisplay:10.37,2013-02-05 08:05:00,
2013-02-05 02:10:00,10.4,7.8,28.71,SE,135,8.1,8.1,89,0.00,CLR,,0.00,WeatherDisplay:10.37,2013-02-05 08:10:00,
2013-02-05 02:15:00,10.6,8.0,28.71,SE,135,9.2,9.2,89,0.00,CLR,,0.00,WeatherDisplay:10.37,2013-02-05 08:15:00,
2013-02-05 02:20:00,10.6,8.0,28.71,South,180,6.9,6.9,89,0.00,CLR,,0.00,WeatherDisplay:10.37,2013-02-05 08:20:00,
2013-02-05 02:25:00,10.9,8.3,28.71,SW,225,8.1,8.1,89,0.00,CLR,,0.00,WeatherDisplay:10.37,2013-02-05 08:25:00,
2013-02-05 02:30:00,10.8,8.2,28.70,SE,135,10.4,10.4,89,0.00,CLR,,0.00,WeatherDisplay:10.37,2013-02-05 08:30:00,
2013-02-05 02:35:00,10.9,8.6,28.68,SE,135,10.4,10.4,90,0.00,CLR,,0.00,WeatherDisplay:10.37,2013-02-05 08:35:00,
2013-02-05 02:40:00,10.9,8.6,28.69,SE,135,8.1,8.1,90,0.00,CLR,,0.00,WeatherDisplay:10.37,2013-02-05 08:40:00,
2013-02-05 02:45:00,11.1,8.8,28.70,SE,135,3.5,3.5,90,0.00,CLR,,0.00,WeatherDisplay:10.37,2013-02-05 08:45:00,
2013-02-05 02:50:00,11.3,8.9,28.69,South,180,5.8,5.8,90,0.00,CLR,,0.00,WeatherDisplay:10.37,2013-02-05 08:50:00,
2013-02-05 02:55:00,11.5,9.1,28.69,South,180,2.3,2.3,90,0.00,CLR,,0.00,WeatherDisplay:10.37,2013-02-05 08:55:00,
2013-02-05 03:00:00,11.7,9.3,28.69,NW,315,3.5,3.5,90,0.00,CLR,,0.00,WeatherDisplay:10.37,2013-02-05 09:00:00,
2013-02-05 03:05:00,11.8,9.5,28.68,ESE,112,5.8,5.8,90,0.00,CLR,,0.00,WeatherDisplay:10.37,2013-02-05 09:05:00,
2013-02-05 03:10:00,11.8,9.5,28.68,South,180,5.8,5.8,90,0.00,CLR,,0.00,WeatherDisplay:10.37,2013-02-05 09:10:00,
2013-02-05 03:15:00,12.0,9.7,28.68,South,180,5.8,5.8,90,0.00,CLR,,0.00,WeatherDisplay:10.37,2013-02-05 09:15:00,
2013-02-05 03:20:00,12.0,9.7,28.67,South,180,5.8,5.8,90,0.00,CLR,,0.00,WeatherDisplay:10.37,2013-02-05 09:20:00,
2013-02-05 03:25:00,12.2,9.8,28.67,SE,135,4.6,4.6,90,0.00,CLR,,0.00,WeatherDisplay:10.37,2013-02-05 09:25:00,
2013-02-05 03:30:00,12.2,9.8,28.67,SE,135,2.3,0.0,90,0.00,CLR,,0.00,WeatherDisplay:10.37,2013-02-05 09:30:00,
2013-02-05 03:35:00,12.2,9.8,28.67,SE,135,2.3,0.0,90,0.00,CLR,,0.00,WeatherDisplay:10.37,2013-02-05 09:35:00,
2013-02-05 03:40:00,12.4,10.0,28.66,SE,135,4.6,4.6,90,0.00,CLR,,0.00,WeatherDisplay:10.37,2013-02-05 09:40:00,
2013-02-05 03:45:00,12.6,10.2,28.67,South,180,3.5,3.5,90,0.00,CLR,,0.00,WeatherDisplay:10.37,2013-02-05 09:45:00,
2013-02-05 03:50:00,12.7,10.4,28.67,South,180,3.5,3.5,90,0.00,CLR,,0.00,WeatherDisplay:10.37,2013-02-05 09:50:00,
2013-02-05 03:55:00,12.9,10.5,28.67,South,180,3.5,3.5,90,0.00,CLR,,0.00,WeatherDisplay:10.37,2013-02-05 09:55:00,
2013-02-05 04:00:00,12.9,10.5,28.67,South,180,2.3,2.3,90,0.00,CLR,,0.00,WeatherDisplay:10.37,2013-02-05 10:00:00,
2013-02-05 04:05:00,12.9,10.5,28.67,South,180,2.3,2.3,90,0.00,CLR,,0.00,WeatherDisplay:10.37,2013-02-05 10:05:00,
2013-02-05 04:10:00,13.1,11.0,28.67,South,180,3.5,3.5,91,0.00,CLR,,0.00,WeatherDisplay:10.37,2013-02-05 10:10:00,
2013-02-05 04:15:00,13.1,11.0,28.67,West,270,5.8,0.0,91,0.00,CLR,,0.00,WeatherDisplay:10.37,2013-02-05 10:15:00,
2013-02-05 04:20:00,13.3,11.1,28.66,SE,135,3.5,3.5,91,0.00,CLR,,0.00,WeatherDisplay:10.37,2013-02-05 10:20:00,
2013-02-05 04:25:00,13.3,11.1,28.66,SE,135,3.5,3.5,91,0.00,CLR,,0.00,WeatherDisplay:10.37,2013-02-05 10:25:00,
2013-02-05 04:30:00,13.5,11.3,28.65,South,180,3.8,3.8,91,0.00,CLR,,0.00,WeatherDisplay:10.37,2013-02-05 10:30:00,
2013-02-05 04:35:00,13.5,11.3,28.65,SE,135,3.5,3.5,91,0.00,CLR,,0.00,WeatherDisplay:10.37,2013-02-05 10:35:00,
2013-02-05 04:40:00,13.5,11.3,28.65,SE,135,2.3,2.3,91,0.00,CLR,,0.00,WeatherDisplay:10.37,2013-02-05 10:40:00,
2013-02-05 04:45:00,13.6,11.5,28.65,South,180,2.3,0.0,91,0.00,CLR,,0.00,WeatherDisplay:10.37,2013-02-05 10:45:00,
2013-02-05 04:50:00,13.8,11.7,28.64,SE,135,3.5,3.5,91,0.00,CLR,,0.00,WeatherDisplay:10.37,2013-02-05 10:50:00,
2013-02-05 04:55:00,13.8,11.7,28.64,South,180,3.5,0.0,91,0.00,CLR,,0.00,WeatherDisplay:10.37,2013-02-05 10:55:00,
2013-02-05 05:00:00,14.0,11.9,28.65,SE,135,3.5,3.5,91,0.00,CLR,,0.00,WeatherDisplay:10.37,2013-02-05 11:00:00,
2013-02-05 05:05:00,14.0,11.9,28.65,SE,135,3.8,3.8,91,0.00,CLR,,0.00,WeatherDisplay:10.37,2013-02-05 11:05:00,
2013-02-05 05:10:00,14.2,12.0,28.66,SE,135,1.1,1.6,91,0.00,CLR,,0.00,WeatherDisplay:10.37,2013-02-05 11:10:00,
2013-02-05 05:15:00,14.2,12.0,28.65,South,180,1.1,0.0,91,0.00,CLR,,0.00,WeatherDisplay:10.37,2013-02-05 11:15:00,
2013-02-05 05:20:00,14.2,12.0,28.65,SW,225,2.3,2.3,91,0.00,CLR,,0.00,WeatherDisplay:10.37,2013-02-05 11:20:00,
2013-02-05 05:25:00,14.4,12.2,28.65,South,180,1.1,1.1,91,0.00,CLR,,0.00,WeatherDisplay:10.37,2013-02-05 11:25:00,
2013-02-05 05:30:00,14.5,12.4,28.65,SW,225,3.5,3.5,91,0.00,CLR,,0.00,WeatherDisplay:10.37,2013-02-05 11:30:00,
2013-02-05 05:35:00,14.5,12.4,28.65,South,180,1.1,1.1,91,0.00,CLR,,0.00,WeatherDisplay:10.37,2013-02-05 11:35:00,
2013-02-05 05:40:00,14.7,12.6,28.64,South,180,3.5,3.5,91,0.00,CLR,,0.00,WeatherDisplay:10.37,2013-02-05 11:40:00,
2013-02-05 05:45:00,14.9,13.0,28.64,South,180,2.3,2.3,92,0.00,CLR,,0.00,WeatherDisplay:10.37,2013-02-05 11:45:00,
2013-02-05 05:50:00,15.1,13.2,28.64,South,180,2.3,2.3,92,0.00,CLR,,0.00,WeatherDisplay:10.37,2013-02-05 11:50:00,
2013-02-05 05:55:00,15.1,13.2,28.63,South,180,2.3,2.3,92,0.00,CLR,,0.00,WeatherDisplay:10.37,2013-02-05 11:55:00,
2013-02-05 06:00:00,15.3,13.4,28.63,South,180,1.1,1.1,92,0.00,CLR,,0.00,WeatherDisplay:10.37,2013-02-05 12:00:00,
2013-02-05 06:05:00,15.3,13.4,28.62,South,180,1.1,1.1,92,0.00,CLR,,0.00,WeatherDisplay:10.37,2013-02-05 12:05:00,
2013-02-05 06:10:00,15.6,13.7,28.61,SE,135,6.9,6.9,92,0.00,CLR,,0.00,WeatherDisplay:10.37,2013-02-05 12:10:00,
2013-02-05 06:15:00,15.6,13.7,28.61,SSE,158,3.5,3.5,92,0.00,CLR,,0.00,WeatherDisplay:10.37,2013-02-05 12:15:00,
2013-02-05 06:20:00,15.8,13.9,28.63,South,180,3.5,3.5,92,0.00,CLR,,0.00,WeatherDisplay:10.37,2013-02-05 12:20:00,
2013-02-05 06:25:00,16.0,14.1,28.63,South,180,2.3,2.3,92,0.00,CLR,,0.00,WeatherDisplay:10.37,2013-02-05 12:25:00,
2013-02-05 06:30:00,16.0,14.1,28.62,SE,135,2.3,2.3,92,0.00,CLR,,0.00,WeatherDisplay:10.37,2013-02-05 12:30:00,
2013-02-05 06:35:00,16.2,14.2,28.62,SE,135,2.3,3.1,92,0.00,CLR,,0.00,WeatherDisplay:10.37,2013-02-05 12:35:00,
2013-02-05 06:40:00,16.2,14.2,28.62,SE,135,3.5,3.5,92,0.00,CLR,,0.00,WeatherDisplay:10.37,2013-02-05 12:40:00,
2013-02-05 06:45:00,16.2,14.2,28.63,SE,135,1.1,1.1,92,0.00,CLR,,0.00,WeatherDisplay:10.37,2013-02-05 12:45:00,
2013-02-05 06:50:00,16.2,14.2,28.63,SE,135,1.1,0.0,92,0.00,CLR,,0.00,WeatherDisplay:10.37,2013-02-05 12:50:00,
2013-02-05 06:55:00,16.3,14.4,28.63,SE,135,1.1,0.0,92,0.00,CLR,,0.00,WeatherDisplay:10.37,2013-02-05 12:55:00,
2013-02-05 07:00:00,16.3,14.4,28.63,SE,135,1.1,1.1,92,0.00,CLR,,0.00,WeatherDisplay:10.37,2013-02-05 13:00:00,
2013-02-05 07:05:00,16.3,14.4,28.63,SE,135,1.1,1.1,92,0.00,CLR,,0.00,WeatherDisplay:10.37,2013-02-05 13:05:00,
2013-02-05 07:10:00,16.3,14.4,28.63,SE,135,0.0,0.0,92,0.00,CLR,,0.00,WeatherDisplay:10.37,2013-02-05 13:10:00,
2013-02-05 07:15:00,16.7,14.8,28.64,SW,225,1.1,0.0,92,0.00,CLR,,0.00,WeatherDisplay:10.37,2013-02-05 13:15:00,
2013-02-05 07:20:00,16.9,15.0,28.63,SE,135,2.3,0.0,92,0.00,CLR,,0.00,WeatherDisplay:10.37,2013-02-05 13:20:00,
2013-02-05 07:25:00,17.2,15.3,28.63,NW,315,2.3,0.0,92,0.00,CLR,,0.00,WeatherDisplay:10.37,2013-02-05 13:25:00,
2013-02-05 07:30:00,17.4,15.7,28.63,SE,135,1.1,1.1,93,0.00,CLR,,0.00,WeatherDisplay:10.37,2013-02-05 13:30:00,
2013-02-05 07:35:00,17.8,16.1,28.64,South,180,1.1,0.0,93,0.00,CLR,,0.00,WeatherDisplay:10.37,2013-02-05 13:35:00,
2013-02-05 07:40:00,18.1,16.5,28.63,South,180,2.3,2.3,93,0.00,CLR,,0.00,WeatherDisplay:10.37,2013-02-05 13:40:00,
2013-02-05 07:45:00,18.7,17.2,28.64,South,180,3.5,3.5,94,0.00,CLR,,0.00,WeatherDisplay:10.37,2013-02-05 13:45:00,
2013-02-05 07:50:00,19.0,17.6,28.64,SW,225,3.5,3.5,94,0.00,CLR,,0.00,WeatherDisplay:10.37,2013-02-05 13:50:00,
2013-02-05 07:55:00,19.4,18.0,28.64,SW,225,3.5,3.5,94,0.00,CLR,,0.00,WeatherDisplay:10.37,2013-02-05 13:55:00,
2013-02-05 08:00:00,19.8,18.3,28.64,SW,225,2.3,2.3,94,0.00,CLR,,0.00,WeatherDisplay:10.37,2013-02-05 14:00:00,
2013-02-05 08:05:00,19.8,18.3,28.65,SW,225,2.3,2.3,94,0.00,CLR,,0.00,WeatherDisplay:10.37,2013-02-05 14:05:00,
2013-02-05 08:10:00,20.3,18.8,28.65,SW,225,3.5,3.5,94,0.00,CLR,,0.00,WeatherDisplay:10.37,2013-02-05 14:10:00,
2013-02-05 08:15:00,20.7,19.2,28.66,South,180,4.6,4.6,94,0.00,CLR,,0.00,WeatherDisplay:10.37,2013-02-05 14:15:00,
2013-02-05 08:20:00,21.0,19.6,28.65,NW,315,3.5,3.5,94,0.00,CLR,,0.00,WeatherDisplay:10.37,2013-02-05 14:20:00,
2013-02-05 08:25:00,21.0,19.6,28.66,SW,225,3.5,3.5,94,0.00,CLR,,0.00,WeatherDisplay:10.37,2013-02-05 14:25:00,
2013-02-05 08:30:00,21.2,19.5,28.66,West,270,3.5,3.5,93,0.00,CLR,,0.00,WeatherDisplay:10.37,2013-02-05 14:30:00,
2013-02-05 08:35:00,21.2,19.7,28.66,South,180,5.8,5.8,94,0.00,CLR,,0.00,WeatherDisplay:10.37,2013-02-05 14:35:00,
2013-02-05 08:40:00,21.4,19.9,28.66,NW,315,2.3,2.3,94,0.00,CLR,,0.00,WeatherDisplay:10.37,2013-02-05 14:40:00,
2013-02-05 08:45:00,21.6,19.9,28.67,West,270,3.5,3.5,93,0.00,CLR,,0.00,WeatherDisplay:10.37,2013-02-05 14:45:00,
2013-02-05 08:50:00,21.7,20.0,28.67,West,270,2.3,2.3,93,0.00,CLR,,0.00,WeatherDisplay:10.37,2013-02-05 14:50:00,
2013-02-05 08:55:00,21.7,20.0,28.67,SW,225,3.5,3.5,93,0.00,CLR,,0.00,WeatherDisplay:10.37,2013-02-05 14:55:00,
2013-02-05 09:00:00,21.9,20.0,28.67,West,270,4.6,4.6,92,0.00,CLR,,0.00,WeatherDisplay:10.37,2013-02-05 15:00:00,
2013-02-05 09:05:00,21.9,20.0,28.67,West,270,4.6,4.6,92,0.00,CLR,,0.00,WeatherDisplay:10.37,2013-02-05 15:05:00,
2013-02-05 09:10:00,22.1,20.1,28.67,SW,225,4.6,4.6,92,0.00,CLR,,0.00,WeatherDisplay:10.37,2013-02-05 15:10:00,
2013-02-05 09:15:00,22.5,20.5,28.67,West,270,4.6,4.6,92,0.00,CLR,,0.00,WeatherDisplay:10.37,2013-02-05 15:15:00,
2013-02-05 09:20:00,22.5,20.5,28.68,SW,225,3.5,3.5,92,0.00,CLR,,0.00,WeatherDisplay:10.37,2013-02-05 15:20:00,
2013-02-05 09:25:00,22.5,20.5,28.67,West,270,4.6,4.6,92,0.00,CLR,,0.00,WeatherDisplay:10.37,2013-02-05 15:25:00,
2013-02-05 09:30:00,22.6,20.4,28.68,West,270,4.6,4.6,91,0.00,CLR,,0.00,WeatherDisplay:10.37,2013-02-05 15:30:00,
2013-02-05 09:35:00,23.0,21.0,28.68,West,270,4.6,4.6,92,0.00,CLR,,0.00,WeatherDisplay:10.37,2013-02-05 15:35:00,
2013-02-05 09:40:00,23.4,21.4,28.68,West,270,3.8,3.8,92,0.00,CLR,,0.00,WeatherDisplay:10.37,2013-02-05 15:40:00,
2013-02-05 09:45:00,23.7,21.7,28.68,NW,315,3.5,0.0,92,0.00,CLR,,0.00,WeatherDisplay:10.37,2013-02-05 15:45:00,
2013-02-05 09:50:00,24.3,22.3,28.68,West,270,4.6,4.6,92,0.00,CLR,,0.00,WeatherDisplay:10.37,2013-02-05 15:50:00,
2013-02-05 09:55:00,24.6,22.4,28.69,NE,45,4.6,4.6,91,0.00,CLR,,0.00,WeatherDisplay:10.37,2013-02-05 15:55:00,
2013-02-05 10:00:00,25.0,22.2,28.69,NW,315,3.5,3.5,89,0.00,CLR,,0.00,WeatherDisplay:10.37,2013-02-05 16:00:00,
2013-02-05 10:05:00,25.0,22.2,28.69,NW,315,3.5,3.5,89,0.00,CLR,,0.00,WeatherDisplay:10.37,2013-02-05 16:05:00,
2013-02-05 10:10:00,25.3,22.0,28.69,NW,315,4.6,5.4,87,0.00,CLR,,0.00,WeatherDisplay:10.37,2013-02-05 16:10:00,
2013-02-05 10:15:00,25.5,21.9,28.70,North,0,5.8,5.8,86,0.00,CLR,,0.00,WeatherDisplay:10.37,2013-02-05 16:15:00,
2013-02-05 10:20:00,25.5,21.6,28.69,North,0,5.8,5.8,85,0.00,CLR,,0.00,WeatherDisplay:10.37,2013-02-05 16:20:00,
2013-02-05 10:25:00,25.5,21.4,28.70,NW,315,10.4,10.4,84,0.00,CLR,,0.00,WeatherDisplay:10.37,2013-02-05 16:25:00,
2013-02-05 10:30:00,25.3,20.9,28.70,North,0,11.5,11.5,83,0.00,CLR,,0.00,WeatherDisplay:10.37,2013-02-05 16:30:00,
2013-02-05 10:35:00,25.2,20.7,28.71,NW,315,12.7,12.7,83,0.00,CLR,,0.00,WeatherDisplay:10.37,2013-02-05 16:35:00,
2013-02-05 10:40:00,25.2,20.7,28.71,NW,315,8.1,8.1,83,0.00,CLR,,0.00,WeatherDisplay:10.37,2013-02-05 16:40:00,
2013-02-05 10:45:00,25.2,20.7,28.71,North,0,8.1,8.1,83,0.00,CLR,,0.00,WeatherDisplay:10.37,2013-02-05 16:45:00,
2013-02-05 10:50:00,25.3,20.6,28.72,North,0,10.4,10.4,82,0.00,CLR,,0.00,WeatherDisplay:10.37,2013-02-05 16:50:00,
2013-02-05 10:55:00,25.0,20.3,28.72,NNW,338,12.7,12.7,82,0.00,CLR,,0.00,WeatherDisplay:10.37,2013-02-05 16:55:00,
2013-02-05 11:00:00,25.0,20.5,28.73,NW,315,8.1,8.1,83,0.00,CLR,,0.00,WeatherDisplay:10.37,2013-02-05 17:00:00,
2013-02-05 11:05:00,25.0,20.5,28.73,NW,315,5.8,5.8,83,0.00,CLR,,0.00,WeatherDisplay:10.37,2013-02-05 17:05:00,
2013-02-05 11:10:00,24.6,19.9,28.74,NNW,338,10.4,10.7,82,0.00,CLR,,0.00,WeatherDisplay:10.37,2013-02-05 17:10:00,
2013-02-05 11:15:00,24.4,20.0,28.74,NW,315,12.7,12.7,83,0.00,CLR,,0.00,WeatherDisplay:10.37,2013-02-05 17:15:00,
2013-02-05 11:20:00,24.4,20.0,28.75,NW,315,11.5,11.5,83,0.00,CLR,,0.00,WeatherDisplay:10.37,2013-02-05 17:20:00,
2013-02-05 11:25:00,24.6,20.2,28.74,NW,315,8.1,8.1,83,0.00,CLR,,0.00,WeatherDisplay:10.37,2013-02-05 17:25:00,
2013-02-05 11:30:00,24.4,19.7,28.75,North,0,11.5,11.5,82,0.00,CLR,,0.00,WeatherDisplay:10.37,2013-02-05 17:30:00,
2013-02-05 11:35:00,24.6,19.9,28.75,NW,315,8.1,8.1,82,0.00,CLR,,0.00,WeatherDisplay:10.37,2013-02-05 17:35:00,
2013-02-05 11:40:00,24.6,19.9,28.75,NNW,338,10.4,10.4,82,0.00,CLR,,0.00,WeatherDisplay:10.37,2013-02-05 17:40:00,
2013-02-05 11:45:00,24.8,20.1,28.76,NW,315,5.8,5.8,82,0.00,CLR,,0.00,WeatherDisplay:10.37,2013-02-05 17:45:00,
2013-02-05 11:50:00,25.0,20.0,28.75,NW,315,10.4,10.4,81,0.00,CLR,,0.00,WeatherDisplay:10.37,2013-02-05 17:50:00,
2013-02-05 11:55:00,25.0,20.0,28.76,North,0,10.4,10.4,81,0.00,CLR,,0.00,WeatherDisplay:10.37,2013-02-05 17:55:00,
2013-02-05 12:00:00,24.8,19.8,28.76,NW,315,9.2,9.2,81,0.00,CLR,,0.00,WeatherDisplay:10.37,2013-02-05 18:00:00,
2013-02-05 12:05:00,24.8,19.8,28.76,NW,315,5.8,5.8,81,0.00,CLR,,0.00,WeatherDisplay:10.37,2013-02-05 18:05:00,
2013-02-05 12:10:00,25.2,19.9,28.77,North,0,8.1,8.1,80,0.00,CLR,,0.00,WeatherDisplay:10.37,2013-02-05 18:10:00,
2013-02-05 12:15:00,25.2,19.9,28.76,NW,315,10.4,10.4,80,0.00,CLR,,0.00,WeatherDisplay:10.37,2013-02-05 18:15:00,
2013-02-05 12:20:00,25.5,19.6,28.76,North,0,9.2,9.2,78,0.00,CLR,,0.00,WeatherDisplay:10.37,2013-02-05 18:20:00,
2013-02-05 12:25:00,25.5,19.6,28.77,North,0,10.4,10.4,78,0.00,CLR,,0.00,WeatherDisplay:10.37,2013-02-05 18:25:00,
2013-02-05 12:30:00,25.9,19.7,28.78,NW,315,8.1,8.1,77,0.00,CLR,,0.00,WeatherDisplay:10.37,2013-02-05 18:30:00,
2013-02-05 12:35:00,25.9,19.4,28.78,NW,315,8.1,8.1,76,0.00,CLR,,0.00,WeatherDisplay:10.37,2013-02-05 18:35:00,
2013-02-05 12:40:00,25.9,19.4,28.78,North,0,8.1,8.1,76,0.00,CLR,,0.00,WeatherDisplay:10.37,2013-02-05 18:40:00,
2013-02-05 12:45:00,25.5,18.7,28.78,North,0,10.4,10.4,75,0.00,CLR,,0.00,WeatherDisplay:10.37,2013-02-05 18:45:00,
2013-02-05 12:50:00,25.3,18.2,28.78,NW,315,13.8,13.8,74,0.00,CLR,,0.00,WeatherDisplay:10.37,2013-02-05 18:50:00,
2013-02-05 12:55:00,25.5,18.7,28.79,NW,315,8.1,8.1,75,0.00,CLR,,0.00,WeatherDisplay:10.37,2013-02-05 18:55:00,
2013-02-05 13:00:00,25.3,17.9,28.79,North,0,13.8,13.8,73,0.00,CLR,,0.00,WeatherDisplay:10.37,2013-02-05 19:00:00,
2013-02-05 13:05:00,25.3,17.9,28.80,North,0,9.2,9.2,73,0.00,CLR,,0.00,WeatherDisplay:10.37,2013-02-05 19:05:00,
2013-02-05 13:10:00,25.3,17.2,28.80,NW,315,10.4,10.4,71,0.00,CLR,,0.00,WeatherDisplay:10.37,2013-02-05 19:10:00,
2013-02-05 13:15:00,25.3,17.6,28.80,NNW,338,8.1,8.1,72,0.00,CLR,,0.00,WeatherDisplay:10.37,2013-02-05 19:15:00,
2013-02-05 13:20:00,25.3,16.9,28.80,NNW,338,13.7,13.7,70,0.00,CLR,,0.00,WeatherDisplay:10.37,2013-02-05 19:20:00,
2013-02-05 13:25:00,25.0,16.2,28.81,NNW,338,15.0,15.0,69,0.00,CLR,,0.00,WeatherDisplay:10.37,2013-02-05 19:25:00,
2013-02-05 13:30:00,24.8,16.4,28.81,North,0,11.5,11.5,70,0.00,CLR,,0.00,WeatherDisplay:10.37,2013-02-05 19:30:00,
2013-02-05 13:35:00,24.8,16.4,28.81,NW,315,12.7,12.7,70,0.00,CLR,,0.00,WeatherDisplay:10.37,2013-02-05 19:35:00,
2013-02-05 13:40:00,25.2,16.4,28.81,NW,315,9.2,9.2,69,0.00,CLR,,0.00,WeatherDisplay:10.37,2013-02-05 19:40:00,
2013-02-05 13:45:00,25.0,16.2,28.81,NW,315,9.2,9.2,69,0.00,CLR,,0.00,WeatherDisplay:10.37,2013-02-05 19:45:00,
2013-02-05 13:50:00,25.2,16.4,28.81,WNW,292,10.4,10.4,69,0.00,CLR,,0.00,WeatherDisplay:10.37,2013-02-05 19:50:00,
2013-02-05 13:55:00,25.7,16.6,28.81,North,0,11.5,11.5,68,0.00,CLR,,0.00,WeatherDisplay:10.37,2013-02-05 19:55:00,
2013-02-05 14:00:00,25.5,16.4,28.82,NNW,338,8.1,8.1,68,0.00,CLR,,0.00,WeatherDisplay:10.37,2013-02-05 20:00:00,
2013-02-05 14:05:00,25.5,16.4,28.82,NNW,338,8.1,8.1,68,0.00,CLR,,0.00,WeatherDisplay:10.37,2013-02-05 20:05:00,
2013-02-05 14:10:00,27.1,16.6,28.82,NW,315,9.2,9.2,64,0.00,CLR,,0.00,WeatherDisplay:10.37,2013-02-05 20:10:00,
2013-02-05 14:15:00,25.9,15.0,28.82,NW,315,15.0,15.0,63,0.00,CLR,,0.00,WeatherDisplay:10.37,2013-02-05 20:15:00,
2013-02-05 14:20:00,26.2,15.7,28.82,NNW,338,8.1,8.1,64,0.00,CLR,,0.00,WeatherDisplay:10.37,2013-02-05 20:20:00,
2013-02-05 14:25:00,28.4,16.3,28.82,North,0,8.1,8.1,60,0.00,CLR,,0.00,WeatherDisplay:10.37,2013-02-05 20:25:00,
2013-02-05 14:30:00,27.0,14.9,28.82,NW,315,10.4,10.4,60,0.00,CLR,,0.00,WeatherDisplay:10.37,2013-02-05 20:30:00,
2013-02-05 14:35:00,28.2,14.9,28.83,NE,45,9.2,9.2,57,0.00,CLR,,0.00,WeatherDisplay:10.37,2013-02-05 20:35:00,
2013-02-05 14:40:00,28.0,14.3,28.83,WNW,292,12.7,12.7,56,0.00,CLR,,0.00,WeatherDisplay:10.37,2013-02-05 20:40:00,
2013-02-05 14:45:00,27.7,14.0,28.83,North,0,10.4,10.4,56,0.00,CLR,,0.00,WeatherDisplay:10.37,2013-02-05 20:45:00,
2013-02-05 14:50:00,27.5,13.8,28.84,NNW,338,12.7,12.7,56,0.00,CLR,,0.00,WeatherDisplay:10.37,2013-02-05 20:50:00,
2013-02-05 14:55:00,27.7,13.6,28.84,NW,315,8.1,8.1,55,0.00,CLR,,0.00,WeatherDisplay:10.37,2013-02-05 20:55:00,
2013-02-05 15:00:00,27.9,13.8,28.84,WNW,292,10.4,10.4,55,0.00,CLR,,0.00,WeatherDisplay:10.37,2013-02-05 21:00:00,
2013-02-05 15:05:00,27.9,13.8,28.85,WNW,292,8.1,8.1,55,0.00,CLR,,0.00,WeatherDisplay:10.37,2013-02-05 21:05:00,
2013-02-05 15:10:00,27.7,13.6,28.85,NW,315,9.2,9.2,55,0.00,CLR,,0.00,WeatherDisplay:10.37,2013-02-05 21:10:00,
2013-02-05 15:15:00,27.7,13.2,28.86,North,0,10.4,10.4,54,0.00,CLR,,0.00,WeatherDisplay:10.37,2013-02-05 21:15:00,
2013-02-05 15:20:00,27.5,13.0,28.86,NW,315,12.7,12.7,54,0.00,CLR,,0.00,WeatherDisplay:10.37,2013-02-05 21:20:00,
2013-02-05 15:25:00,27.0,12.9,28.86,North,0,10.4,10.4,55,0.00,CLR,,0.00,WeatherDisplay:10.37,2013-02-05 21:25:00,
2013-02-05 15:30:00,27.1,13.1,28.87,WNW,292,9.2,9.2,55,0.00,CLR,,0.00,WeatherDisplay:10.37,2013-02-05 21:30:00,
2013-02-05 15:35:00,26.6,12.6,28.87,NW,315,10.7,10.7,55,0.00,CLR,,0.00,WeatherDisplay:10.37,2013-02-05 21:35:00,
2013-02-05 15:40:00,26.4,12.8,28.87,NW,315,8.1,8.1,56,0.00,CLR,,0.00,WeatherDisplay:10.37,2013-02-05 21:40:00,
2013-02-05 15:45:00,26.4,12.8,28.87,NNW,338,10.4,10.4,56,0.00,CLR,,0.00,WeatherDisplay:10.37,2013-02-05 21:45:00,
2013-02-05 15:50:00,26.6,13.0,28.87,North,0,8.1,8.1,56,0.00,CLR,,0.00,WeatherDisplay:10.37,2013-02-05 21:50:00,
2013-02-05 15:55:00,26.4,12.8,28.88,West,270,8.1,8.1,56,0.00,CLR,,0.00,WeatherDisplay:10.37,2013-02-05 21:55:00,
2013-02-05 16:00:00,26.4,12.4,28.88,NW,315,10.4,10.4,55,0.00,CLR,,0.00,WeatherDisplay:10.37,2013-02-05 22:00:00,
2013-02-05 16:05:00,26.4,12.4,28.88,NW,315,10.4,10.4,55,0.00,CLR,,0.00,WeatherDisplay:10.37,2013-02-05 22:05:00,
2013-02-05 16:11:00,23.2,11.7,28.88,NW,315,10.4,10.4,61,0.00,CLR,,0.00,WeatherDisplay:10.37,2013-02-05 22:11:00,
2013-02-05 16:16:00,22.5,11.8,28.89,North,0,8.1,8.1,63,0.00,CLR,,0.00,WeatherDisplay:10.37,2013-02-05 22:16:00,
2013-02-05 16:21:00,21.9,11.6,28.88,North,0,5.8,5.8,64,0.00,CLR,,0.00,WeatherDisplay:10.37,2013-02-05 22:21:00,
2013-02-05 16:26:00,21.7,11.4,28.89,NW,315,5.8,5.8,64,0.00,CLR,,0.00,WeatherDisplay:10.37,2013-02-05 22:26:00,
2013-02-05 16:31:00,21.2,11.3,28.89,SW,225,4.6,4.6,65,0.00,CLR,,0.00,WeatherDisplay:10.37,2013-02-05 22:31:00,
2013-02-05 16:36:00,21.0,11.1,28.90,NW,315,5.8,5.8,65,0.00,CLR,,0.00,WeatherDisplay:10.37,2013-02-05 22:36:00,
2013-02-05 16:41:00,20.5,10.6,28.90,North,0,3.5,3.5,65,0.00,CLR,,0.00,WeatherDisplay:10.37,2013-02-05 22:41:00,
2013-02-05 16:46:00,20.1,10.6,28.90,NW,315,2.3,2.3,66,0.00,CLR,,0.00,WeatherDisplay:10.37,2013-02-05 22:46:00,
2013-02-05 16:51:00,19.9,10.7,28.90,NW,315,3.5,3.5,67,0.00,CLR,,0.00,WeatherDisplay:10.37,2013-02-05 22:51:00,
2013-02-05 16:56:00,19.4,10.2,28.90,NNW,338,2.3,0.0,67,0.00,CLR,,0.00,WeatherDisplay:10.37,2013-02-05 22:56:00,
2013-02-05 17:01:00,19.2,10.0,28.91,NW,315,1.1,1.1,67,0.00,CLR,,0.00,WeatherDisplay:10.37,2013-02-05 23:01:00,
2013-02-05 17:06:00,19.2,10.0,28.90,NW,315,1.1,1.1,67,0.00,CLR,,0.00,WeatherDisplay:10.37,2013-02-05 23:06:00,
2013-02-05 17:11:00,18.7,9.9,28.91,West,270,1.1,0.0,68,0.00,CLR,,0.00,WeatherDisplay:10.37,2013-02-05 23:11:00,
2013-02-05 17:16:00,18.5,9.7,28.91,SW,225,2.3,2.3,68,0.00,CLR,,0.00,WeatherDisplay:10.37,2013-02-05 23:16:00,
2013-02-05 17:21:00,18.1,9.3,28.91,West,270,3.5,3.5,68,0.00,CLR,,0.00,WeatherDisplay:10.37,2013-02-05 23:21:00,
2013-02-05 17:26:00,18.1,9.7,28.91,West,270,1.1,0.0,69,0.00,CLR,,0.00,WeatherDisplay:10.37,2013-02-05 23:26:00,
2013-02-05 17:31:00,17.6,9.2,28.92,SW,225,1.1,0.0,69,0.00,CLR,,0.00,WeatherDisplay:10.37,2013-02-05 23:31:00,
2013-02-05 17:36:00,17.1,8.6,28.92,SW,225,1.1,1.1,69,0.00,CLR,,0.00,WeatherDisplay:10.37,2013-02-05 23:36:00,
2013-02-05 17:41:00,16.9,8.8,28.93,NW,315,1.1,1.1,70,0.00,CLR,,0.00,WeatherDisplay:10.37,2013-02-05 23:41:00,
2013-02-05 17:46:00,16.7,8.6,28.93,NW,315,2.3,0.0,70,0.00,CLR,,0.00,WeatherDisplay:10.37,2013-02-05 23:46:00,
2013-02-05 17:51:00,16.2,8.1,28.93,NW,315,0.0,0.0,70,0.00,CLR,,0.00,WeatherDisplay:10.37,2013-02-05 23:51:00,
2013-02-05 17:56:00,16.0,8.2,28.93,West,270,1.1,0.0,71,0.00,CLR,,0.00,WeatherDisplay:10.37,2013-02-05 23:56:00,
2013-02-05 18:01:00,16.0,8.5,28.93,SW,225,3.5,3.5,72,0.00,CLR,,0.00,WeatherDisplay:10.37,2013-02-06 00:01:00,
2013-02-05 18:06:00,15.8,8.1,28.93,SW,225,2.3,0.0,71,0.00,CLR,,0.00,WeatherDisplay:10.37,2013-02-06 00:06:00,
2013-02-05 18:11:00,15.1,7.1,28.93,NW,315,1.1,1.1,70,0.00,CLR,,0.00,WeatherDisplay:10.37,2013-02-06 00:11:00,
2013-02-05 18:16:00,14.0,6.0,28.94,SW,225,1.1,0.0,70,0.00,CLR,,0.00,WeatherDisplay:10.37,2013-02-06 00:16:00,
2013-02-05 18:21:00,13.5,6.1,28.94,SW,225,2.3,2.3,72,0.00,CLR,,0.00,WeatherDisplay:10.37,2013-02-06 00:21:00,
2013-02-05 18:26:00,13.6,6.6,28.95,SW,225,3.5,3.5,73,0.00,CLR,,0.00,WeatherDisplay:10.37,2013-02-06 00:26:00,
2013-02-05 18:31:00,13.5,6.4,28.95,SW,225,3.5,3.5,73,0.00,CLR,,0.00,WeatherDisplay:10.37,2013-02-06 00:31:00,
2013-02-05 18:36:00,12.9,5.9,28.95,SW,225,2.3,2.3,73,0.00,CLR,,0.00,WeatherDisplay:10.37,2013-02-06 00:36:00,
2013-02-05 18:41:00,12.4,5.7,28.96,West,270,1.1,0.0,74,0.00,CLR,,0.00,WeatherDisplay:10.37,2013-02-06 00:41:00,
2013-02-05 18:46:00,11.5,4.5,28.96,West,270,0.0,0.0,73,0.00,CLR,,0.00,WeatherDisplay:10.37,2013-02-06 00:46:00,
2013-02-05 18:51:00,11.5,4.5,28.96,West,270,0.0,0.0,73,0.00,CLR,,0.00,WeatherDisplay:10.37,2013-02-06 00:51:00,
2013-02-05 18:56:00,9.3,2.7,28.96,South,180,0.0,0.0,74,0.00,CLR,,0.00,WeatherDisplay:10.37,2013-02-06 00:56:00,
2013-02-05 19:01:00,8.4,1.8,28.97,South,180,1.1,0.0,74,0.00,CLR,,0.00,WeatherDisplay:10.37,2013-02-06 01:01:00,
2013-02-05 19:06:00,7.0,0.4,28.97,South,180,1.1,0.0,74,0.00,CLR,,0.00,WeatherDisplay:10.37,2013-02-06 01:06:00,
2013-02-05 19:11:00,6.3,-0.3,28.97,South,180,1.1,0.0,74,0.00,CLR,,0.00,WeatherDisplay:10.37,2013-02-06 01:11:00,
2013-02-05 19:16:00,5.4,-0.8,28.97,South,180,0.0,0.0,75,0.00,CLR,,0.00,WeatherDisplay:10.37,2013-02-06 01:16:00,
2013-02-05 19:21:00,5.0,-1.2,28.98,South,180,0.0,0.0,75,0.00,CLR,,0.00,WeatherDisplay:10.37,2013-02-06 01:21:00,
2013-02-05 19:26:00,4.1,-1.8,28.98,South,180,1.1,0.0,76,0.00,CLR,,0.00,WeatherDisplay:10.37,2013-02-06 01:26:00,
2013-02-05 19:31:00,3.6,-2.3,28.98,North,0,1.1,1.1,76,0.00,CLR,,0.00,WeatherDisplay:10.37,2013-02-06 01:31:00,
2013-02-05 19:36:00,2.7,-2.9,28.98,North,0,0.0,0.0,77,0.00,CLR,,0.00,WeatherDisplay:10.37,2013-02-06 01:36:00,
2013-02-05 19:41:00,2.1,-3.4,28.98,North,0,0.0,0.0,77,0.00,CLR,,0.00,WeatherDisplay:10.37,2013-02-06 01:41:00,
2013-02-05 19:46:00,2.1,-3.2,28.98,North,0,1.1,0.0,78,0.00,CLR,,0.00,WeatherDisplay:10.37,2013-02-06 01:46:00,
2013-02-05 19:51:00,1.6,-3.4,28.98,NW,315,1.1,1.1,79,0.00,CLR,,0.00,WeatherDisplay:10.37,2013-02-06 01:51:00,
2013-02-05 19:56:00,1.0,-4.0,28.98,NW,315,1.1,0.0,79,0.00,CLR,,0.00,WeatherDisplay:10.37,2013-02-06 01:56:00,
2013-02-05 20:01:00,1.0,-3.7,28.99,NW,315,1.1,0.0,80,0.00,CLR,,0.00,WeatherDisplay:10.37,2013-02-06 02:01:00,
2013-02-05 20:06:00,1.0,-3.7,28.98,NW,315,1.1,0.0,80,0.00,CLR,,0.00,WeatherDisplay:10.37,2013-02-06 02:06:00,
2013-02-05 20:11:00,1.9,-1.8,28.99,SW,225,2.3,2.3,84,0.00,CLR,,0.00,WeatherDisplay:10.37,2013-02-06 02:11:00,
2013-02-05 20:16:00,3.4,0.1,28.99,SW,225,3.5,3.5,86,0.00,CLR,,0.00,WeatherDisplay:10.37,2013-02-06 02:16:00,
2013-02-05 20:21:00,3.7,0.2,28.98,West,270,1.1,0.0,85,0.00,CLR,,0.00,WeatherDisplay:10.37,2013-02-06 02:21:00,
2013-02-05 20:26:00,2.7,-1.1,28.98,West,270,1.1,0.0,84,0.00,CLR,,0.00,WeatherDisplay:10.37,2013-02-06 02:26:00,
2013-02-05 20:31:00,1.0,-2.9,28.99,SW,225,1.1,0.0,83,0.00,CLR,,0.00,WeatherDisplay:10.37,2013-02-06 02:31:00,
2013-02-05 20:36:00,0.1,-3.8,28.99,SW,225,0.0,0.0,83,0.00,CLR,,0.00,WeatherDisplay:10.37,2013-02-06 02:36:00,
2013-02-05 20:41:00,-0.4,-4.3,28.99,SW,225,0.0,0.0,83,0.00,CLR,,0.00,WeatherDisplay:10.37,2013-02-06 02:41:00,
2013-02-05 20:46:00,-0.9,-4.9,28.99,SW,225,0.0,0.0,83,0.00,CLR,,0.00,WeatherDisplay:10.37,2013-02-06 02:46:00,
2013-02-05 20:51:00,-0.9,-4.9,29.00,SW,225,0.0,0.0,83,0.00,CLR,,0.00,WeatherDisplay:10.37,2013-02-06 02:51:00,
2013-02-05 20:56:00,-1.5,-5.4,29.00,NW,315,1.1,0.0,83,0.00,CLR,,0.00,WeatherDisplay:10.37,2013-02-06 02:56:00,
2013-02-05 21:01:00,-1.8,-5.7,29.00,South,180,1.1,1.1,83,0.00,CLR,,0.00,WeatherDisplay:10.37,2013-02-06 03:01:00,
2013-02-05 21:06:00,-1.8,-5.7,29.00,South,180,1.1,1.1,83,0.00,CLR,,0.00,WeatherDisplay:10.37,2013-02-06 03:06:00,
2013-02-05 21:11:00,-2.4,-6.3,29.00,SE,135,1.1,1.1,83,0.00,CLR,,0.00,WeatherDisplay:10.37,2013-02-06 03:11:00,
2013-02-05 21:16:00,-2.6,-6.4,29.00,SE,135,1.1,0.0,83,0.00,CLR,,0.00,WeatherDisplay:10.37,2013-02-06 03:16:00,
2013-02-05 21:21:00,-2.6,-6.2,29.00,SE,135,1.1,0.0,84,0.00,CLR,,0.00,WeatherDisplay:10.37,2013-02-06 03:21:00,
2013-02-05 21:26:00,-2.6,-6.4,29.00,North,0,0.0,0.0,83,0.00,CLR,,0.00,WeatherDisplay:10.37,2013-02-06 03:26:00,
2013-02-05 21:31:00,-2.7,-6.6,29.01,South,180,1.1,0.0,83,0.00,CLR,,0.00,WeatherDisplay:10.37,2013-02-06 03:31:00,
2013-02-05 21:36:00,-2.7,-6.6,29.01,West,270,1.1,0.0,83,0.00,CLR,,0.00,WeatherDisplay:10.37,2013-02-06 03:36:00,
2013-02-05 21:41:00,-3.1,-7.0,29.01,West,270,1.1,0.0,83,0.00,CLR,,0.00,WeatherDisplay:10.37,2013-02-06 03:41:00,
2013-02-05 21:46:00,-3.8,-7.7,29.01,NW,315,1.1,1.1,83,0.00,CLR,,0.00,WeatherDisplay:10.37,2013-02-06 03:46:00,
2013-02-05 21:51:00,-4.4,-8.5,29.02,NW,315,1.1,1.1,82,0.00,CLR,,0.00,WeatherDisplay:10.37,2013-02-06 03:51:00,
2013-02-05 21:56:00,-4.5,-8.4,29.02,NW,315,1.1,0.0,83,0.00,CLR,,0.00,WeatherDisplay:10.37,2013-02-06 03:56:00,
2013-02-05 22:01:00,-4.7,-8.6,29.02,NW,315,0.0,0.0,83,0.00,CLR,,0.00,WeatherDisplay:10.37,2013-02-06 04:01:00,
2013-02-05 22:06:00,-4.7,-8.6,29.02,NW,315,0.0,0.0,83,0.00,CLR,,0.00,WeatherDisplay:10.37,2013-02-06 04:06:00,
2013-02-05 22:11:00,-4.9,-8.7,29.02,NW,315,1.1,0.0,83,0.00,CLR,,0.00,WeatherDisplay:10.37,2013-02-06 04:11:00,
2013-02-05 22:16:00,-4.9,-8.7,29.01,NW,315,1.1,0.0,83,0.00,CLR,,0.00,WeatherDisplay:10.37,2013-02-06 04:16:00,
2013-02-05 22:21:00,-5.3,-9.1,29.02,NW,315,1.1,1.1,83,0.00,CLR,,0.00,WeatherDisplay:10.37,2013-02-06 04:21:00,
2013-02-05 22:26:00,-5.4,-9.3,29.02,NW,315,1.1,0.0,83,0.00,CLR,,0.00,WeatherDisplay:10.37,2013-02-06 04:26:00,
2013-02-05 22:31:00,-5.1,-8.9,29.02,NW,315,1.1,0.0,83,0.00,CLR,,0.00,WeatherDisplay:10.37,2013-02-06 04:31:00,
2013-02-05 22:36:00,-5.6,-9.4,29.02,NW,315,1.1,0.0,83,0.00,CLR,,0.00,WeatherDisplay:10.37,2013-02-06 04:36:00,
2013-02-05 22:41:00,-5.6,-9.4,29.02,NW,315,0.0,0.0,83,0.00,CLR,,0.00,WeatherDisplay:10.37,2013-02-06 04:41:00,
2013-02-05 22:46:00,-5.6,-9.4,29.02,SW,225,0.0,0.0,83,0.00,CLR,,0.00,WeatherDisplay:10.37,2013-02-06 04:46:00,
2013-02-05 22:51:00,-6.0,-10.0,29.02,SW,225,1.1,0.0,82,0.00,CLR,,0.00,WeatherDisplay:10.37,2013-02-06 04:51:00,
2013-02-05 22:56:00,-6.3,-10.4,29.02,SW,225,0.0,0.0,82,0.00,CLR,,0.00,WeatherDisplay:10.37,2013-02-06 04:56:00,
2013-02-05 23:00:00,-6.5,-10.6,29.02,SW,225,0.0,0.0,82,0.00,CLR,,0.00,WeatherDisplay:10.37,2013-02-06 05:00:00,
2013-02-05 23:05:00,-6.5,-10.6,29.03,SW,225,0.0,0.0,82,0.00,CLR,,0.00,WeatherDisplay:10.37,2013-02-06 05:05:00,
2013-02-05 23:10:00,-6.7,-10.8,29.03,SW,225,0.0,0.0,82,0.00,CLR,,0.00,WeatherDisplay:10.37,2013-02-06 05:10:00,
2013-02-05 23:15:00,-6.7,-10.8,29.03,South,180,1.1,0.0,82,0.00,CLR,,0.00,WeatherDisplay:10.37,2013-02-06 05:15:00,
2013-02-05 23:20:00,-6.7,-10.8,29.03,West,270,0.0,0.0,82,0.00,CLR,,0.00,WeatherDisplay:10.37,2013-02-06 05:20:00,
2013-02-05 23:25:00,-6.9,-10.9,29.03,NW,315,1.1,0.0,82,0.00,CLR,,0.00,WeatherDisplay:10.37,2013-02-06 05:25:00,
2013-02-05 23:30:00,-6.9,-10.9,29.04,NW,315,1.1,0.0,82,0.00,CLR,,0.00,WeatherDisplay:10.37,2013-02-06 05:30:00,
2013-02-05 23:35:00,-7.2,-11.3,29.04,NW,315,1.1,0.0,82,0.00,CLR,,0.00,WeatherDisplay:10.37,2013-02-06 05:35:00,
2013-02-05 23:40:00,-7.6,-11.6,29.03,NW,315,1.1,0.0,82,0.00,CLR,,0.00,WeatherDisplay:10.37,2013-02-06 05:40:00,
2013-02-05 23:45:00,-7.4,-11.5,29.03,NW,315,1.1,1.1,82,0.00,CLR,,0.00,WeatherDisplay:10.37,2013-02-06 05:45:00,
2013-02-05 23:50:00,-7.2,-11.0,29.03,NW,315,1.1,1.1,83,0.00,CLR,,0.00,WeatherDisplay:10.37,2013-02-06 05:50:00,
2013-02-05 23:55:00,-7.2,-11.0,29.03,NW,315,1.1,0.0,83,0.00,CLR,,0.00,WeatherDisplay:10.37,2013-02-06 05:55:00,